This is the latest recevied weather packets stored in our database for station/object WP3OF-3. If no packets are shown the sender has not sent any weather packets the latest 10 day(s).
| Time | Temp. | Humidity | Pressure | Rain* | Wind** | Luminosity | Snow |
|---|---|---|---|---|---|---|---|
| 1777818908 | 28.33° C | 70% | 1020.8 hPa | 0 mm | - | - | - |
| 1777818604 | 28.33° C | 69% | 1020.9 hPa | 0 mm | - | - | - |
| 1777818302 | 28.33° C | 71% | 1020.8 hPa | 0 mm | - | - | - |
| 1777817998 | 27.78° C | 67% | 1020.9 hPa | 0 mm | - | - | - |
| 1777817695 | 27.78° C | 69% | 1020.8 hPa | 0 mm | - | - | - |
| 1777817392 | 27.78° C | 70% | 1020.8 hPa | 0 mm | - | - | - |
| 1777817089 | 27.22° C | 74% | 1021 hPa | 0 mm | - | - | - |
| 1777816785 | 27.78° C | 71% | 1020.7 hPa | 0 mm | - | - | - |
| 1777816483 | 27.22° C | 71% | 1020.8 hPa | 0 mm | - | - | - |
| 1777816180 | 26.67° C | 78% | 1021 hPa | 0 mm | - | - | - |
| 1777815878 | 26.67° C | 70% | 1021.1 hPa | 0 mm | - | - | - |
| 1777815575 | 26.67° C | 74% | 1020.9 hPa | 0 mm | - | - | - |
| 1777815273 | 25.56° C | 79% | 1020.7 hPa | 0 mm | - | - | - |
| 1777814968 | 25.56° C | 83% | 1020.9 hPa | 1.78 mm | - | - | - |
| 1777814665 | 25.56° C | 82% | 1020.9 hPa | 1.78 mm | - | - | - |
| 1777814362 | 25° C | 81% | 1020.7 hPa | 0 mm | - | - | - |
| 1777814059 | 24.44° C | 86% | 1020.9 hPa | 0 mm | - | - | - |
| 1777813756 | 23.33° C | 91% | 1020.8 hPa | 0 mm | - | - | - |
| 1777813453 | 23.33° C | 94% | 1020.8 hPa | 0 mm | - | - | - |
| 1777813150 | 22.78° C | 94% | 1021 hPa | 0 mm | - | - | - |
| 1777812848 | 22.78° C | 95% | 1021 hPa | 0 mm | - | - | - |
| 1777812544 | 22.78° C | 95% | 1021 hPa | 0 mm | - | - | - |
| 1777812243 | 22.22° C | 95% | 1020.9 hPa | 0 mm | - | - | - |
| 1777811941 | 22.22° C | 96% | 1020.9 hPa | 0 mm | - | - | - |
| 1777811639 | 22.22° C | 97% | 1020.8 hPa | 0 mm | - | - | - |
* Rain latest hour (hover to see other rain measurements)
** Current wind speed in m/s (hover to see current wind gust speed)